KF7IOR Weather Reports


time (UTC)temp
C
wind
direction
speed
KPH
gust
KPH
rain 1hr
cm
rain 24hr
cm
rain mn
cm
humidity
%
barometer
mb
20260503213046 32 278 3.2 9.7 0.00 0.00 0.00 29 1008.3
20260503212535 32 352 3.2 9.7 0.00 0.00 0.00 29 1008.3
20260503212034 32 5 3.2 8.0 0.00 0.00 0.00 31 1008.3
20260503211543 31 294 4.8 9.7 0.00 0.00 0.00 31 1008.5
20260503211034 31 287 4.8 11.3 0.00 0.00 0.00 32 1008.6
20260503210535 31 255 1.6 11.3 0.00 0.00 0.00 35 1008.6
20260503210039 31 335 3.2 12.9 0.00 0.00 0.00 31 1008.8
20260503205534 31 326 3.2 12.9 0.00 0.00 0.00 32 1008.8
20260503205036 31 40 3.2 11.3 0.00 0.00 0.00 32 1008.8
20260503204547 31 269 1.6 11.3 0.00 0.00 0.00 34 1009.0
20260503204034 30 304 3.2 14.5 0.00 0.00 0.00 36 1009.0
20260503203534 30 5 6.4 14.5 0.00 0.00 0.00 34 1009.2
20260503203049 30 350 4.8 14.5 0.00 0.00 0.00 35 1009.2
20260503202535 30 11 3.2 11.3 0.00 0.00 0.00 35 1009.3
20260503202036 30 352 4.8 9.7 0.00 0.00 0.00 36 1009.4
20260503201552 29 341 3.2 16.1 0.00 0.00 0.00 39 1009.5
20260503201036 28 150 3.2 16.1 0.00 0.00 0.00 40 1009.5
20260503200534 28 5 4.8 16.1 0.00 0.00 0.00 39 1009.6
20260503200047 28 9 4.8 9.7 0.00 0.00 0.00 40 1009.6
20260503195535 28 290 4.8 12.9 0.00 0.00 0.00 41 1009.6
20260503195034 28 350 4.8 12.9 0.00 0.00 0.00 43 1009.6
20260503194557 27 22 3.2 9.7 0.00 0.00 0.00 42 1009.7
20260503194034 27 347 4.8 9.7 0.00 0.00 0.00 42 1009.8
20260503193534 27 346 1.6 11.3 0.00 0.00 0.00 43 1009.9
20260503193040 27 252 4.8 11.3 0.00 0.00 0.00 43 1010.0
20260503192534 27 335 1.6 8.0 0.00 0.00 0.00 45 1010.1
20260503192034 27 0 1.6 11.3 0.00 0.00 0.00 46 1010.1
20260503191538 26 277 1.6 12.9 0.00 0.00 0.00 45 1010.1
20260503191035 25 340 4.8 12.9 0.00 0.00 0.00 46 1010.2
20260503190538 26 333 6.4 11.3 0.00 0.00 0.00 48 1010.3
20260503190042 25 352 4.8 12.9 0.00 0.00 0.00 46 1010.2
20260503185534 25 36 3.2 12.9 0.00 0.00 0.00 48 1010.4
20260503185034 25 9 3.2 12.9 0.00 0.00 0.00 47 1010.6
20260503184544 25 233 3.2 8.0 0.00 0.00 0.00 47 1010.6
20260503184035 25 341 1.6 6.4 0.00 0.00 0.00 48 1010.6
20260503183535 25 264 1.6 8.0 0.00 0.00 0.00 49 1010.7
20260503183053 25 321 1.6 8.0 0.00 0.00 0.00 50 1010.8
20260503182534 23 352 3.2 8.0 0.00 0.00 0.00 51 1010.8
20260503182034 23 338 3.2 8.0 0.00 0.00 0.00 52 1010.8
20260503181556 23 19 3.2 6.4 0.00 0.00 0.00 52 1011.0
20260503181038 23 249 3.2 6.4 0.00 0.00 0.00 53 1010.9
20260503180536 23 318 3.2 6.4 0.00 0.00 0.00 53 1011.0
20260503180049 23 320 3.2 6.4 0.00 0.00 0.00 54 1011.0
20260503175533 23 305 1.6 8.0 0.00 0.00 0.00 54 1011.0
20260503175034 22 26 3.2 6.4 0.00 0.00 0.00 56 1011.1
20260503174553 22 308 3.2 6.4 0.00 0.00 0.00 57 1011.2
20260503174034 22 340 1.6 6.4 0.00 0.00 0.00 58 1011.2
20260503173535 22 66 1.6 6.4 0.00 0.00 0.00 57 1011.3
20260503173047 21 19 1.6 8.0 0.00 0.00 0.00 59 1011.3
20260503172536 21 319 3.2 9.7 0.00 0.00 0.00 60 1011.4
20260503172034 21 360 3.2 9.7 0.00 0.00 0.00 62 1011.3
20260503171544 21 10 1.6 9.7 0.00 0.00 0.00 64 1011.4
20260503171113 20 43 3.2 8.0 0.00 0.00 0.00 63 1011.5
20260503170534 20 31 3.2 6.4 0.00 0.00 0.00 63 1011.4
20260503150534 15 352 0.0 3.2 0.00 0.00 0.00 81 1011.9
20260503131034 10 0 0.0 0.0 0.00 0.00 0.00 91 1011.6
20260503130535 10 0 0.0 0.0 0.00 0.00 0.00 91 1011.5
20260503110535 11 0 0.0 0.0 0.00 0.00 0.00 90 1011.8
20260503081548 13 0 0.0 3.2 0.00 0.00 0.00 87 1012.1
20260503081037 13 0 0.0 3.2 0.00 0.00 0.00 87 1012.0
20260503080538 13 0 0.0 0.0 0.00 0.00 0.00 86 1012.0
20260503072535 13 0 0.0 0.0 0.00 0.00 0.00 85 1012.1
20260503072035 13 0 0.0 3.2 0.00 0.00 0.00 85 1012.2
20260503071547 13 0 0.0 3.2 0.00 0.00 0.00 85 1012.2
20260503071034 13 0 0.0 3.2 0.00 0.00 0.00 84 1012.2
20260503070537 13 255 0.0 3.2 0.00 0.00 0.00 84 1012.2
20260503055034 16 0 0.0 3.2 0.00 0.00 0.00 78 1011.9
20260503054545 16 0 0.0 3.2 0.00 0.00 0.00 78 1011.8
20260503054034 16 321 0.0 3.2 0.00 0.00 0.00 77 1011.8
20260503053534 16 352 0.0 3.2 0.00 0.00 0.00 77 1011.9
20260503053045 16 0 0.0 3.2 0.00 0.00 0.00 77 1012.0
20260503052534 16 352 1.6 3.2 0.00 0.00 0.00 77 1011.8
20260503052035 16 352 0.0 3.2 0.00 0.00 0.00 78 1011.8
20260503051550 16 0 0.0 3.2 0.00 0.00 0.00 77 1012.1
20260503051034 16 352 1.6 3.2 0.00 0.00 0.00 77 1012.0
20260503050535 16 16 0.0 1.6 0.00 0.00 0.00 76 1012.2
20260503050047 16 105 0.0 1.6 0.00 0.00 0.00 76 1012.4
20260503045535 16 0 0.0 0.0 0.00 0.00 0.00 75 1012.3
20260503045034 17 0 0.0 3.2 0.00 0.00 0.00 74 1012.4
20260503044600 17 0 0.0 3.2 0.00 0.00 0.00 74 1012.4
20260503044034 17 0 0.0 3.2 0.00 0.00 0.00 75 1012.4
20260503043534 17 0 1.6 1.6 0.00 0.00 0.00 74 1012.3
20260503043048 17 0 0.0 0.0 0.00 0.00 0.00 74 1012.2
20260503042537 17 0 0.0 0.0 0.00 0.00 0.00 73 1012.1
20260503042035 17 0 0.0 3.2 0.00 0.00 0.00 73 1012.2
20260503041604 17 0 0.0 3.2 0.00 0.00 0.00 73 1012.1
20260503041035 17 0 0.0 3.2 0.00 0.00 0.00 73 1012.1
20260503040535 17 0 0.0 3.2 0.00 0.00 0.00 72 1012.1
20260503040051 17 0 0.0 3.2 0.00 0.00 0.00 71 1012.2
20260503035535 17 0 0.0 3.2 0.00 0.00 0.00 71 1012.1
20260503035038 17 0 0.0 3.2 0.00 0.00 0.00 71 1012.1
20260503034539 17 119 0.0 3.2 0.00 0.00 0.00 70 1012.0
20260503034035 18 0 0.0 3.2 0.00 0.00 0.00 69 1011.9
20260503033536 18 0 0.0 3.2 0.00 0.00 0.00 68 1011.9
20260503033042 18 0 0.0 3.2 0.00 0.00 0.00 68 1011.9
20260503032535 18 127 1.6 4.8 0.00 0.00 0.00 68 1011.8
20260503032035 18 0 0.0 6.4 0.00 0.00 0.00 68 1011.6
20260503031542 18 138 3.2 6.4 0.00 0.00 0.00 67 1011.7
20260503031035 18 178 1.6 11.3 0.00 0.00 0.00 67 1011.6
20260503030535 18 206 0.0 11.3 0.00 0.00 0.00 67 1011.6
20260503030045 18 244 1.6 12.9 0.00 0.00 0.00 67 1011.6
20260503025534 18 0 3.2 12.9 0.00 0.00 0.00 67 1011.7
20260503025034 19 77 4.8 14.5 0.00 0.00 0.00 66 1011.7
20260503024545 19 154 3.2 14.5 0.00 0.00 0.00 66 1011.6
20260503024035 19 232 1.6 16.1 0.00 0.00 0.00 65 1011.7
20260503023535 20 109 3.2 17.7 0.00 0.00 0.00 64 1011.7
20260503023047 20 199 4.8 19.3 0.00 0.00 0.00 63 1011.6
20260503022535 20 207 8.0 19.3 0.00 0.00 0.00 62 1011.7
20260503022035 21 239 1.6 16.1 0.00 0.00 0.00 61 1011.5
20260503021545 21 131 8.0 14.5 0.00 0.00 0.00 59 1011.6
20260503021035 21 191 6.4 17.7 0.00 0.00 0.00 59 1011.5
20260503020536 21 145 6.4 17.7 0.00 0.00 0.00 58 1011.2
20260503020046 22 148 4.8 11.3 0.00 0.00 0.00 56 1011.0
20260503015535 23 150 3.2 9.7 0.00 0.00 0.00 54 1010.8
20260503015034 23 257 0.0 3.2 0.00 0.00 0.00 54 1010.7
20260503014550 23 239 0.0 3.2 0.00 0.00 0.00 54 1010.6
20260503014035 23 223 0.0 3.2 0.00 0.00 0.00 54 1010.6
20260503013535 23 234 0.0 3.2 0.00 0.00 0.00 52 1010.7
20260503013045 23 223 1.6 4.8 0.00 0.00 0.00 53 1010.6
20260503012536 23 211 1.6 6.4 0.00 0.00 0.00 54 1010.6
20260503012037 23 279 1.6 6.4 0.00 0.00 0.00 53 1010.6
20260503011548 23 259 1.6 3.2 0.00 0.00 0.00 52 1010.6
20260503011037 23 325 1.6 3.2 0.00 0.00 0.00 54 1010.6
20260503010534 23 244 0.0 6.4 0.00 0.00 0.00 54 1010.7
20260503010045 23 248 1.6 6.4 0.00 0.00 0.00 51 1010.6
20260503005535 23 298 1.6 6.4 0.00 0.00 0.00 51 1010.6
20260503005036 24 345 3.2 8.0 0.00 0.00 0.00 51 1010.6
20260503004604 24 295 1.6 12.9 0.00 0.00 0.00 50 1010.7
20260503004035 23 28 3.2 12.9 0.00 0.00 0.00 51 1010.7
20260503003535 24 352 4.8 12.9 0.00 0.00 0.00 51 1010.7
20260503003055 24 5 3.2 12.9 0.00 0.00 0.00 50 1010.7
20260503002539 23 329 4.8 12.9 0.00 0.00 0.00 51 1010.7
20260503002035 24 352 1.6 6.4 0.00 0.00 0.00 51 1010.7
20260503001553 23 5 1.6 8.0 0.00 0.00 0.00 51 1010.8
20260503001035 23 17 3.2 11.3 0.00 0.00 0.00 52 1010.8
20260503000535 23 223 3.2 12.9 0.00 0.00 0.00 53 1010.8
20260503000046 22 294 4.8 12.9 0.00 0.00 0.00 54 1010.9
20260502235535 22 309 3.2 8.0 0.00 0.00 0.00 53 1010.9
20260502235035 22 239 3.2 8.0 0.00 0.00 0.00 54 1011.0
20260502234551 22 276 1.6 11.3 0.00 0.00 0.00 55 1011.0
20260502234035 22 344 3.2 11.3 0.00 0.00 0.00 54 1011.1
20260502233536 22 9 1.6 9.7 0.00 0.00 0.00 55 1011.2
20260502233041 22 360 3.2 9.7 0.00 0.00 0.00 54 1011.3
20260502232535 22 334 3.2 9.7 0.00 0.00 0.00 53 1011.2
20260502232035 22 51 1.6 8.0 0.00 0.00 0.00 56 1011.4
20260502231542 22 39 1.6 12.9 0.00 0.00 0.00 56 1011.3
20260502231035 21 27 3.2 12.9 0.00 0.00 0.00 56 1011.4
20260502230535 21 256 4.8 12.9 0.00 0.00 0.00 55 1011.4
20260502230039 22 300 1.6 4.8 0.00 0.00 0.00 53 1011.5
20260502225534 22 21 1.6 8.0 0.00 0.00 0.00 57 1011.6
20260502225035 21 291 3.2 8.0 0.00 0.00 0.00 57 1011.8
20260502224537 21 30 3.2 8.0 0.00 0.00 0.00 56 1011.9
20260502224034 21 10 1.6 6.4 0.00 0.00 0.00 55 1012.0
20260502223535 21 46 3.2 8.0 0.00 0.00 0.00 55 1012.1
20260502223047 21 15 1.6 8.0 0.00 0.00 0.00 57 1012.2
20260502222535 21 13 1.6 9.7 0.00 0.00 0.00 57 1012.2
20260502222034 20 176 1.6 9.7 0.00 0.00 0.00 58 1012.3
20260502221542 21 61 3.2 6.4 0.00 0.00 0.00 57 1012.3
20260502221034 20 44 1.6 11.3 0.00 0.00 0.00 61 1012.5
20260502220534 20 22 3.2 11.3 0.00 0.00 0.00 58 1012.6
20260502220114 20 78 1.6 8.0 0.00 0.00 0.00 58 1012.7
20260502215536 20 352 3.2 8.0 0.00 0.00 0.00 58 1012.8
20260502215034 20 348 3.2 8.0 0.00 0.00 0.00 58 1012.8
20260502214539 20 51 3.2 8.0 0.00 0.00 0.00 59 1012.8
20260502214035 21 329 1.6 9.7 0.00 0.00 0.00 59 1012.9
20260502213535 20 352 4.8 9.7 0.00 0.00 0.00 57 1013.0